IRNSS-1G

Last updated on Jan. 25, 2020, 4:43 a.m. UTC

1 41469U 16027A   20024.57701183 -.00000343  00000-0  00000-0 0  9991
2 41469   2.3949 230.7126 0002952 208.8515  21.0656  1.00273713 13773
UTC
Height (km)
Latitude
Longitude
Inclination
Orbital Period
UTC large
Height (km)
Speed (km/s)
/
Latitude / Longitude
Inclination (degrees)
Orbital Period (minutes)
Azimuth
Elevation
Range (km)
Doppler Factor
iOS Compass Heading
iOS Angle

Next 30 passes for location: Hong Kong

Rise time Rise Azimuth (degrees) Set time Set Azimuth (degrees) Duration Max altitude (degrees)

No matching passes for this satellites